FW4370 Weather Reports


Display with metric or nautical units.
time (UTC)temp
F
wind
direction
speed
MPH
gust
MPH
rain 1hr
in
rain 24hr
in
rain mn
in
humidity
%
barometer
mb
20260906191515 83 274 1.0 7.0 0.00 0.00 0.00 32 1006.6
20260906190012 84 176 2.0 8.0 0.00 0.00 0.00 33 1006.8
20260906184509 85 328 1.0 10.0 0.00 0.00 0.00 34 1007.0
20260906183004 83 238 2.0 7.0 0.00 0.00 0.00 35 1007.3
20260906181601 81 348 1.0 6.0 0.00 0.00 0.00 36 1007.5
20260906180113 81 316 3.0 6.0 0.00 0.00 0.00 37 1007.7
20260906174554 81 224 1.0 5.0 0.00 0.00 0.00 38 1008.0
20260906173054 80 297 3.0 6.0 0.00 0.00 0.00 39 1008.1
20260906171545 78 266 1.0 4.0 0.00 0.00 0.00 39 1008.3
20260906170047 77 338 3.0 6.0 0.00 0.00 0.00 39 1008.4
20260906164542 77 304 0.0 5.0 0.00 0.00 0.00 40 1008.4
20260906163053 77 6 3.0 6.0 0.00 0.00 0.00 40 1008.4
20260906161538 77 323 1.0 6.0 0.00 0.00 0.00 41 1008.3
20260906160033 74 23 2.0 6.0 0.00 0.00 0.00 41 1008.3
20260906154530 73 319 2.0 7.0 0.00 0.00 0.00 41 1008.6
20260906153128 73 306 1.0 6.0 0.00 0.00 0.00 42 1008.6
20260906151526 72 15 2.0 6.0 0.00 0.00 0.00 41 1008.7
20260906150024 71 31 1.0 6.0 0.00 0.00 0.00 41 1008.6
20260906144521 72 309 1.0 6.0 0.00 0.00 0.00 42 1008.6
20260906143017 72 46 0.0 3.0 0.00 0.00 0.00 44 1008.4
20260906141514 70 306 0.0 1.0 0.00 0.00 0.00 44 1008.5
20260906140014 68 286 0.0 0.0 0.00 0.00 0.00 43 1008.5
20260906134508 68 286 0.0 0.0 0.00 0.00 0.00 42 1008.3
20260906133005 67 286 0.0 1.0 0.00 0.00 0.00 41 1008.0
20260906131503 68 286 0.0 0.0 0.00 0.00 0.00 41 1007.8
20260906130112 68 286 0.0 1.0 0.00 0.00 0.00 41 1007.6
20260906124558 69 281 0.0 2.0 0.00 0.00 0.00 41 1007.6
20260906123057 69 277 1.0 3.0 0.00 0.00 0.00 40 1007.5
20260906121553 69 278 0.0 2.0 0.00 0.00 0.00 40 1007.5
20260906120058 69 261 0.0 3.0 0.00 0.00 0.00 39 1007.5
20260906114551 69 268 0.0 4.0 0.00 0.00 0.00 39 1007.6
20260906113048 69 266 0.0 3.0 0.00 0.00 0.00 38 1007.5
20260906111546 69 271 0.0 2.0 0.00 0.00 0.00 38 1007.4
20260906110045 69 268 0.0 2.0 0.00 0.00 0.00 38 1007.5
20260906104541 69 274 0.0 2.0 0.00 0.00 0.00 38 1007.5
20260906103040 68 271 0.0 2.0 0.00 0.00 0.00 38 1007.5
20260906101537 69 272 0.0 0.0 0.00 0.00 0.00 38 1007.5
20260906100036 69 263 0.0 2.0 0.00 0.00 0.00 38 1007.5
20260906094533 69 271 0.0 2.0 0.00 0.00 0.00 38 1007.4
20260906093130 69 270 0.0 3.0 0.00 0.00 0.00 38 1007.3
20260906091526 70 268 0.0 0.0 0.00 0.00 0.00 38 1007.2
20260906090023 70 305 0.0 1.0 0.00 0.00 0.00 39 1007.5
20260906084521 70 268 0.0 3.0 0.00 0.00 0.00 39 1007.6
20260906083023 70 272 1.0 3.0 0.00 0.00 0.00 39 1007.7
20260906081523 70 267 0.0 3.0 0.00 0.00 0.00 39 1007.7
20260906080012 71 255 0.0 3.0 0.00 0.00 0.00 39 1007.9
20260906074510 71 265 0.0 4.0 0.00 0.00 0.00 39 1007.8
20260906073008 71 271 1.0 3.0 0.00 0.00 0.00 39 1008.0
20260906071503 71 267 0.0 1.0 0.00 0.00 0.00 39 1008.1
20260906070001 71 261 0.0 2.0 0.00 0.00 0.00 39 1008.1
20260906064600 70 269 0.0 3.0 0.00 0.00 0.00 39 1008.4
20260906063058 70 267 0.0 0.0 0.00 0.00 0.00 39 1008.0
20260906061556 70 268 0.0 1.0 0.00 0.00 0.00 38 1008.1
20260906054551 71 267 0.0 2.0 0.00 0.00 0.00 38 1008.3
20260906053050 72 274 0.0 3.0 0.00 0.00 0.00 38 1008.2
20260906051555 72 266 0.0 3.0 0.00 0.00 0.00 38 1008.2
20260906050048 72 257 0.0 2.0 0.00 0.00 0.00 38 1008.3
20260906044544 72 256 0.0 2.0 0.00 0.00 0.00 38 1008.3
20260906043046 72 264 0.0 3.0 0.00 0.00 0.00 38 1008.3
20260906041546 72 267 0.0 1.0 0.00 0.00 0.00 37 1008.3
20260906040046 71 257 0.0 0.0 0.00 0.00 0.00 37 1008.2
20260906034537 72 257 0.0 1.0 0.00 0.00 0.00 36 1008.1
20260906033036 72 257 0.0 1.0 0.00 0.00 0.00 36 1008.0
20260906031534 72 243 0.0 1.0 0.00 0.00 0.00 35 1007.8
20260906030032 73 243 0.0 2.0 0.00 0.00 0.00 35 1007.7
20260906024531 73 241 0.0 3.0 0.00 0.00 0.00 34 1007.3
20260906023032 74 236 0.0 3.0 0.00 0.00 0.00 34 1007.1
20260906021527 75 244 1.0 5.0 0.00 0.00 0.00 34 1007.2
20260906020024 75 263 1.0 4.0 0.00 0.00 0.00 34 1007.2
20260906014527 75 255 1.0 5.0 0.00 0.00 0.00 34 1007.3
20260906013021 76 268 2.0 7.0 0.00 0.00 0.00 34 1007.6
20260906011519 76 253 2.0 6.0 0.00 0.00 0.00 35 1007.5
20260906010019 77 250 2.0 8.0 0.00 0.00 0.00 35 1007.5
20260906004516 77 285 2.0 6.0 0.00 0.00 0.00 35 1007.6
20260906003014 78 240 3.0 11.0 0.00 0.00 0.00 35 1007.4
20260906001512 79 227 4.0 10.0 0.00 0.00 0.00 35 1007.3
20260906000009 79 276 4.0 11.0 0.00 0.00 0.00 36 1007.3
20260905234510 80 285 4.0 11.0 0.00 0.00 0.00 36 1007.4
20260905233005 77 239 3.0 11.0 0.00 0.00 0.00 35 1007.3
20260905231504 78 224 7.0 15.0 0.00 0.00 0.00 34 1007.3
20260905230001 79 250 4.0 11.0 0.00 0.00 0.00 33 1007.3
20260905224612 79 189 4.0 11.0 0.00 0.00 0.00 33 1007.3
20260905223106 80 239 8.0 14.0 0.00 0.00 0.00 32 1007.2
20260905221555 80 222 6.0 13.0 0.00 0.00 0.00 31 1007.3
20260905220151 80 229 3.0 12.0 0.00 0.00 0.00 31 1007.3
20260905214549 81 250 5.0 14.0 0.00 0.00 0.00 30 1007.5
20260905213049 82 233 6.0 15.0 0.00 0.00 0.00 29 1007.6
20260905211543 83 296 4.0 10.0 0.00 0.00 0.00 29 1007.6
20260905210042 83 248 3.0 11.0 0.00 0.00 0.00 29 1007.8
20260905204539 82 233 3.0 17.0 0.00 0.00 0.00 28 1007.9
20260905203039 83 161 6.0 14.0 0.00 0.00 0.00 27 1008.2
20260905201534 82 241 7.0 14.0 0.00 0.00 0.00 27 1008.2
20260905200033 82 271 4.0 12.0 0.00 0.00 0.00 27 1008.4
20260905194530 81 200 8.0 15.0 0.00 0.00 0.00 27 1008.4
20260905193028 82 204 4.0 10.0 0.00 0.00 0.00 27 1008.5